Time,TemperatureF,DewpointF,PressureIn,WindDirection,WindDirectionDegrees,WindSpeedMPH,WindSpeedGustMPH,Humidity,HourlyPrecipIn,Conditions,Clouds,dailyrainin,SolarRadiationWatts/m^2,SoftwareType,DateUTC
2013-02-17 00:00:00,8.1,1.5,30.09,ESE,109,1.0,1.0,74,0.00,,---,0.00,0.00,VWS V14.00,2013-02-17 06:00:00,
2013-02-17 00:05:00,8.1,1.5,30.09,ESE,107,1.0,1.0,74,0.00,,---,0.00,0.00,VWS V14.00,2013-02-17 06:05:00,
2013-02-17 00:10:00,8.1,1.5,30.09,ESE,106,1.0,1.0,74,0.00,,---,0.00,0.00,VWS V14.00,2013-02-17 06:10:00,
2013-02-17 00:15:00,8.1,1.5,30.08,East,100,2.0,2.0,74,0.00,,---,0.00,0.00,VWS V14.00,2013-02-17 06:15:00,
2013-02-17 00:20:00,8.1,1.8,30.08,ESE,107,3.0,3.0,75,0.00,,---,0.00,0.00,VWS V14.00,2013-02-17 06:20:00,
2013-02-17 00:25:00,7.9,1.6,30.08,SE,133,2.0,2.0,75,0.00,,---,0.00,0.00,VWS V14.00,2013-02-17 06:25:00,
2013-02-17 00:30:00,7.9,1.6,30.08,ESE,114,2.0,2.0,75,0.00,,---,0.00,0.00,VWS V14.00,2013-02-17 06:30:00,
2013-02-17 00:35:00,7.9,1.6,30.08,ESE,114,1.0,1.0,75,0.00,,---,0.00,0.00,VWS V14.00,2013-02-17 06:35:00,
2013-02-17 00:40:00,7.9,1.6,30.08,SE,124,1.0,1.0,75,0.00,,---,0.00,0.00,VWS V14.00,2013-02-17 06:40:00,
2013-02-17 00:45:00,7.9,1.6,30.08,East,95,2.0,2.0,75,0.00,,---,0.00,0.00,VWS V14.00,2013-02-17 06:45:00,
2013-02-17 00:50:00,7.9,1.6,30.08,ESE,120,3.0,3.0,75,0.00,,---,0.00,0.00,VWS V14.00,2013-02-17 06:50:00,
2013-02-17 00:55:00,7.9,1.6,30.08,ESE,114,3.0,3.0,75,0.00,,---,0.00,0.00,VWS V14.00,2013-02-17 06:55:00,
2013-02-17 01:00:00,7.9,1.6,30.08,ESE,109,3.0,3.0,75,0.00,,---,0.00,0.00,VWS V14.00,2013-02-17 07:00:00,
2013-02-17 01:05:00,7.9,1.6,30.08,East,96,0.0,0.0,75,0.00,,---,0.00,0.00,VWS V14.00,2013-02-17 07:05:00,
2013-02-17 01:10:00,7.9,1.6,30.08,ESE,116,3.0,3.0,75,0.00,,---,0.00,0.00,VWS V14.00,2013-02-17 07:10:00,
2013-02-17 01:15:00,7.9,1.6,30.09,SE,145,3.0,3.0,75,0.00,,---,0.00,0.00,VWS V14.00,2013-02-17 07:15:00,
2013-02-17 01:20:00,7.9,1.6,30.09,SSE,158,1.0,1.0,75,0.00,,---,0.00,0.00,VWS V14.00,2013-02-17 07:20:00,
2013-02-17 01:25:00,8.1,1.8,30.09,SE,124,2.0,2.0,75,0.00,,---,0.00,0.00,VWS V14.00,2013-02-17 07:25:00,
2013-02-17 01:30:00,8.1,1.8,30.08,ESE,121,2.0,2.0,75,0.00,,---,0.00,0.00,VWS V14.00,2013-02-17 07:30:00,
2013-02-17 01:35:00,8.3,2.0,30.08,SE,134,0.0,0.0,75,0.00,,---,0.00,0.00,VWS V14.00,2013-02-17 07:35:00,
2013-02-17 01:40:00,8.8,2.2,30.08,ESE,116,1.0,1.0,74,0.00,,---,0.00,0.00,VWS V14.00,2013-02-17 07:40:00,
2013-02-17 01:45:00,8.8,2.2,30.08,ESE,119,3.0,3.0,74,0.00,,---,0.00,0.00,VWS V14.00,2013-02-17 07:45:00,
2013-02-17 01:50:00,8.8,2.2,30.08,ESE,117,2.0,2.0,74,0.00,,---,0.00,0.00,VWS V14.00,2013-02-17 07:50:00,
2013-02-17 01:55:00,9.3,2.7,30.08,ESE,112,2.0,2.0,74,0.00,,---,0.00,0.00,VWS V14.00,2013-02-17 07:55:00,
2013-02-17 02:00:00,9.5,2.6,30.08,SE,127,1.0,1.0,73,0.00,,---,0.00,0.00,VWS V14.00,2013-02-17 08:00:00,
2013-02-17 02:05:00,9.7,2.8,30.08,ESE,117,1.0,2.0,73,0.00,,---,0.00,0.00,VWS V14.00,2013-02-17 08:05:00,
2013-02-17 02:10:00,9.7,2.8,30.08,SE,130,2.0,2.0,73,0.00,,---,0.00,0.00,VWS V14.00,2013-02-17 08:10:00,
2013-02-17 02:15:00,9.9,3.0,30.08,ESE,121,1.0,1.0,73,0.00,,---,0.00,0.00,VWS V14.00,2013-02-17 08:15:00,
2013-02-17 02:20:00,9.9,3.0,30.08,ESE,109,2.0,2.0,73,0.00,,---,0.00,0.00,VWS V14.00,2013-02-17 08:20:00,
2013-02-17 02:25:00,10.2,3.3,30.08,SE,127,3.0,3.0,73,0.00,,---,0.00,0.00,VWS V14.00,2013-02-17 08:25:00,
2013-02-17 02:30:00,10.2,3.3,30.08,SE,133,1.0,1.0,73,0.00,,---,0.00,0.00,VWS V14.00,2013-02-17 08:30:00,
2013-02-17 02:35:00,10.4,3.5,30.08,ESE,106,2.0,2.0,73,0.00,,---,0.00,0.00,VWS V14.00,2013-02-17 08:35:00,
2013-02-17 02:40:00,10.5,3.6,30.08,ESE,106,4.0,4.0,73,0.00,,---,0.00,0.00,VWS V14.00,2013-02-17 08:40:00,
2013-02-17 02:45:00,10.7,3.2,30.07,SE,124,3.0,3.0,71,0.00,,---,0.00,0.00,VWS V14.00,2013-02-17 08:45:00,
2013-02-17 02:50:00,10.9,3.4,30.07,ESE,113,3.0,3.0,71,0.00,,---,0.00,0.00,VWS V14.00,2013-02-17 08:50:00,
2013-02-17 02:55:00,10.9,3.4,30.07,ESE,114,4.0,5.0,71,0.00,,---,0.00,0.00,VWS V14.00,2013-02-17 08:55:00,
2013-02-17 03:00:00,10.9,3.4,30.06,ESE,121,2.0,2.0,71,0.00,,---,0.00,0.00,VWS V14.00,2013-02-17 09:00:00,
2013-02-17 03:05:00,10.9,3.4,30.06,SE,126,2.0,2.0,71,0.00,,---,0.00,0.00,VWS V14.00,2013-02-17 09:05:00,
2013-02-17 03:10:00,10.9,3.4,30.06,SE,130,6.0,6.0,71,0.00,,---,0.00,0.00,VWS V14.00,2013-02-17 09:10:00,
2013-02-17 03:15:00,10.9,3.4,30.06,SE,140,1.0,1.0,71,0.00,,---,0.00,0.00,VWS V14.00,2013-02-17 09:15:00,
2013-02-17 03:20:00,10.9,3.4,30.06,ESE,121,3.0,3.0,71,0.00,,---,0.00,0.00,VWS V14.00,2013-02-17 09:20:00,
2013-02-17 03:25:00,10.7,3.2,30.06,ESE,104,3.0,3.0,71,0.00,,---,0.00,0.00,VWS V14.00,2013-02-17 09:25:00,
2013-02-17 03:30:00,10.7,3.2,30.05,East,96,2.0,2.0,71,0.00,,---,0.00,0.00,VWS V14.00,2013-02-17 09:30:00,
2013-02-17 03:35:00,10.5,3.0,30.05,ESE,109,3.0,3.0,71,0.00,,---,0.00,0.00,VWS V14.00,2013-02-17 09:35:00,
2013-02-17 03:40:00,10.5,3.0,30.05,ESE,121,2.0,4.0,71,0.00,,---,0.00,0.00,VWS V14.00,2013-02-17 09:40:00,
2013-02-17 03:45:00,10.5,3.0,30.05,SE,128,3.0,3.0,71,0.00,,---,0.00,0.00,VWS V14.00,2013-02-17 09:45:00,
2013-02-17 03:50:00,10.7,2.9,30.05,ESE,104,4.0,4.0,70,0.00,,---,0.00,0.00,VWS V14.00,2013-02-17 09:50:00,
2013-02-17 03:55:00,10.7,2.9,30.05,East,100,1.0,1.0,70,0.00,,---,0.00,0.00,VWS V14.00,2013-02-17 09:55:00,
2013-02-17 04:00:00,10.7,2.9,30.04,ESE,123,2.0,2.0,70,0.00,,---,0.00,0.00,VWS V14.00,2013-02-17 10:00:00,
2013-02-17 04:05:00,10.7,2.9,30.04,SE,130,2.0,2.0,70,0.00,,---,0.00,0.00,VWS V14.00,2013-02-17 10:05:00,
2013-02-17 04:10:00,10.9,3.4,30.04,ESE,117,3.0,3.0,71,0.00,,---,0.00,0.00,VWS V14.00,2013-02-17 10:10:00,
2013-02-17 04:15:00,11.1,3.5,30.04,SE,134,5.0,5.0,71,0.00,,---,0.00,0.00,VWS V14.00,2013-02-17 10:15:00,
2013-02-17 04:20:00,11.1,3.5,30.04,SSE,150,1.0,2.0,71,0.00,,---,0.00,0.00,VWS V14.00,2013-02-17 10:20:00,
2013-02-17 04:25:00,11.1,3.5,30.04,ESE,123,6.0,6.0,71,0.00,,---,0.00,0.00,VWS V14.00,2013-02-17 10:25:00,
2013-02-17 04:30:00,11.1,3.5,30.04,SE,130,2.0,3.0,71,0.00,,---,0.00,0.00,VWS V14.00,2013-02-17 10:30:00,
2013-02-17 04:35:00,11.1,3.2,30.04,SE,124,2.0,2.0,70,0.00,,---,0.00,0.00,VWS V14.00,2013-02-17 10:35:00,
2013-02-17 04:40:00,11.2,3.3,30.04,SE,133,2.0,2.0,70,0.00,,---,0.00,0.00,VWS V14.00,2013-02-17 10:40:00,
2013-02-17 04:45:00,11.2,3.3,30.03,ESE,102,2.0,2.0,70,0.00,,---,0.00,0.00,VWS V14.00,2013-02-17 10:45:00,
2013-02-17 04:50:00,11.2,3.7,30.03,SE,127,2.0,2.0,71,0.00,,---,0.00,0.00,VWS V14.00,2013-02-17 10:50:00,
2013-02-17 04:55:00,11.2,3.7,30.03,SE,140,5.0,5.0,71,0.00,,---,0.00,0.00,VWS V14.00,2013-02-17 10:55:00,
2013-02-17 05:00:00,11.2,3.7,30.03,ESE,120,1.0,1.0,71,0.00,,---,0.00,0.00,VWS V14.00,2013-02-17 11:00:00,
2013-02-17 05:05:00,11.1,3.5,30.03,ESE,102,2.0,2.0,71,0.00,,---,0.00,0.00,VWS V14.00,2013-02-17 11:05:00,
2013-02-17 05:10:00,11.1,3.5,30.03,SE,131,1.0,1.0,71,0.00,,---,0.00,0.00,VWS V14.00,2013-02-17 11:10:00,
2013-02-17 05:15:00,11.1,3.5,30.02,ESE,102,2.0,2.0,71,0.00,,---,0.00,0.00,VWS V14.00,2013-02-17 11:15:00,
2013-02-17 05:19:00,11.1,3.5,30.02,ESE,113,3.0,3.0,71,0.00,,---,0.00,0.00,VWS V14.00,2013-02-17 11:19:00,
2013-02-17 05:24:00,10.9,3.4,30.02,SE,134,4.0,4.0,71,0.00,,---,0.00,0.00,VWS V14.00,2013-02-17 11:24:00,
2013-02-17 05:29:00,10.9,3.4,30.01,SE,144,3.0,3.0,71,0.00,,---,0.00,0.00,VWS V14.00,2013-02-17 11:29:00,
2013-02-17 05:34:00,10.9,3.4,30.01,ESE,116,5.0,5.0,71,0.00,,---,0.00,0.00,VWS V14.00,2013-02-17 11:34:00,
2013-02-17 05:39:00,10.7,3.2,30.01,SE,127,2.0,2.0,71,0.00,,---,0.00,0.00,VWS V14.00,2013-02-17 11:39:00,
2013-02-17 05:44:00,10.7,3.2,30.01,ESE,119,3.0,3.0,71,0.00,,---,0.00,0.00,VWS V14.00,2013-02-17 11:44:00,
2013-02-17 05:49:00,10.7,3.2,30.01,ESE,123,3.0,3.0,71,0.00,,---,0.00,0.00,VWS V14.00,2013-02-17 11:49:00,
2013-02-17 05:54:00,10.7,3.2,30.01,SE,127,3.0,3.0,71,0.00,,---,0.00,0.00,VWS V14.00,2013-02-17 11:54:00,
2013-02-17 05:59:00,10.7,3.2,30.01,ESE,119,2.0,2.0,71,0.00,,---,0.00,0.00,VWS V14.00,2013-02-17 11:59:00,
2013-02-17 06:04:00,10.7,3.2,30.01,SE,143,1.0,1.0,71,0.00,,---,0.00,0.00,VWS V14.00,2013-02-17 12:04:00,
2013-02-17 06:09:00,10.7,3.2,30.01,SE,124,2.0,2.0,71,0.00,,---,0.00,0.00,VWS V14.00,2013-02-17 12:09:00,
2013-02-17 06:14:00,10.5,3.3,30.01,ESE,113,2.0,2.0,72,0.00,,---,0.00,0.00,VWS V14.00,2013-02-17 12:14:00,
2013-02-17 06:19:00,10.5,3.3,30.01,ESE,121,3.0,3.0,72,0.00,,---,0.00,0.00,VWS V14.00,2013-02-17 12:19:00,
2013-02-17 06:24:00,10.5,3.3,30.01,ESE,117,2.0,2.0,72,0.00,,---,0.00,0.00,VWS V14.00,2013-02-17 12:24:00,
2013-02-17 06:29:00,10.7,3.8,30.00,SE,133,2.0,2.0,73,0.00,,---,0.00,0.00,VWS V14.00,2013-02-17 12:29:00,
2013-02-17 06:34:00,10.5,3.6,30.00,SE,124,2.0,2.0,73,0.00,,---,0.00,0.00,VWS V14.00,2013-02-17 12:34:00,
2013-02-17 06:39:00,10.7,3.8,30.00,ESE,117,3.0,3.0,73,0.00,,---,0.00,0.00,VWS V14.00,2013-02-17 12:39:00,
2013-02-17 06:44:00,10.9,4.2,30.00,ESE,123,3.0,4.0,74,0.00,,---,0.00,0.00,VWS V14.00,2013-02-17 12:44:00,
2013-02-17 06:49:00,11.1,4.4,30.00,ESE,116,2.0,2.0,74,0.00,,---,0.00,0.00,VWS V14.00,2013-02-17 12:49:00,
2013-02-17 06:54:00,11.1,4.4,30.00,ESE,121,6.0,6.0,74,0.00,,---,0.00,0.00,VWS V14.00,2013-02-17 12:54:00,
2013-02-17 06:59:00,11.1,4.4,29.98,ESE,123,4.0,4.0,74,0.00,,---,0.00,0.00,VWS V14.00,2013-02-17 12:59:00,
2013-02-17 07:04:00,11.1,4.4,29.98,SE,133,2.0,2.0,74,0.00,,---,0.00,0.00,VWS V14.00,2013-02-17 13:04:00,
2013-02-17 07:09:00,11.1,4.4,29.98,SE,124,2.0,2.0,74,0.00,,---,0.00,0.00,VWS V14.00,2013-02-17 13:09:00,
2013-02-17 07:14:00,11.2,4.5,29.98,SE,128,4.0,4.0,74,0.00,,---,0.00,0.00,VWS V14.00,2013-02-17 13:14:00,
2013-02-17 07:19:00,11.2,4.5,29.98,SSE,147,2.0,4.0,74,0.00,,---,0.00,0.00,VWS V14.00,2013-02-17 13:19:00,
2013-02-17 07:24:00,11.4,4.7,29.98,SE,131,5.0,5.0,74,0.00,,---,0.00,9.00,VWS V14.00,2013-02-17 13:24:00,
2013-02-17 07:29:00,11.4,4.7,29.98,SE,127,4.0,4.0,74,0.00,,---,0.00,9.00,VWS V14.00,2013-02-17 13:29:00,
2013-02-17 07:34:00,11.9,5.2,29.98,SE,138,2.0,2.0,74,0.00,,---,0.00,26.00,VWS V14.00,2013-02-17 13:34:00,
2013-02-17 07:39:00,12.1,5.4,29.98,SE,124,3.0,3.0,74,0.00,,---,0.00,26.00,VWS V14.00,2013-02-17 13:39:00,
2013-02-17 07:44:00,12.1,5.4,29.98,SE,136,2.0,2.0,74,0.00,,---,0.00,26.00,VWS V14.00,2013-02-17 13:44:00,
2013-02-17 07:49:00,12.1,5.4,29.98,SE,131,5.0,5.0,74,0.00,,---,0.00,26.00,VWS V14.00,2013-02-17 13:49:00,
2013-02-17 07:54:00,12.9,6.2,29.98,ESE,112,6.0,6.0,74,0.00,,---,0.00,26.00,VWS V14.00,2013-02-17 13:54:00,
2013-02-17 07:59:00,12.9,6.2,29.97,ESE,110,3.0,3.0,74,0.00,,---,0.00,26.00,VWS V14.00,2013-02-17 13:59:00,
2013-02-17 08:04:00,13.3,6.6,29.97,SE,128,2.0,2.0,74,0.00,,---,0.00,26.00,VWS V14.00,2013-02-17 14:04:00,
2013-02-17 08:09:00,13.5,6.8,29.97,SE,133,2.0,2.0,74,0.00,,---,0.00,26.00,VWS V14.00,2013-02-17 14:09:00,
2013-02-17 08:14:00,14.0,7.0,29.97,SSE,148,4.0,4.0,73,0.00,,---,0.00,116.00,VWS V14.00,2013-02-17 14:14:00,
2013-02-17 08:19:00,14.0,6.7,29.97,SE,145,5.0,5.0,72,0.00,,---,0.00,116.00,VWS V14.00,2013-02-17 14:19:00,
2013-02-17 08:24:00,14.3,6.9,29.97,SSE,150,2.0,2.0,72,0.00,,---,0.00,116.00,VWS V14.00,2013-02-17 14:24:00,
2013-02-17 08:29:00,14.8,7.4,29.97,SE,140,2.0,2.0,72,0.00,,---,0.00,157.00,VWS V14.00,2013-02-17 14:29:00,
2013-02-17 08:34:00,15.1,7.7,29.97,SSE,165,3.0,3.0,72,0.00,,---,0.00,157.00,VWS V14.00,2013-02-17 14:34:00,
2013-02-17 08:39:00,15.4,8.0,29.97,SE,138,2.0,2.0,72,0.00,,---,0.00,157.00,VWS V14.00,2013-02-17 14:39:00,
2013-02-17 08:44:00,15.4,8.0,29.97,SE,130,3.0,3.0,72,0.00,,---,0.00,157.00,VWS V14.00,2013-02-17 14:44:00,
2013-02-17 08:49:00,15.9,7.9,29.97,SSE,154,3.0,8.0,70,0.00,,---,0.00,157.00,VWS V14.00,2013-02-17 14:49:00,
2013-02-17 08:54:00,16.2,8.1,29.97,SSE,148,2.0,2.0,70,0.00,,---,0.00,157.00,VWS V14.00,2013-02-17 14:54:00,
2013-02-17 08:59:00,16.2,8.1,29.96,SSE,151,8.0,8.0,70,0.00,,---,0.00,157.00,VWS V14.00,2013-02-17 14:59:00,
2013-02-17 09:04:00,16.9,8.8,29.96,SE,145,8.0,8.0,70,0.00,,---,0.00,157.00,VWS V14.00,2013-02-17 15:04:00,
2013-02-17 09:09:00,16.9,8.8,29.96,South,169,6.0,6.0,70,0.00,,---,0.00,157.00,VWS V14.00,2013-02-17 15:09:00,
2013-02-17 09:14:00,17.5,9.4,29.95,SE,141,3.0,3.0,70,0.00,,---,0.00,306.00,VWS V14.00,2013-02-17 15:14:00,
2013-02-17 09:19:00,18.3,10.2,29.95,SSE,155,5.0,5.0,70,0.00,,---,0.00,343.00,VWS V14.00,2013-02-17 15:19:00,
2013-02-17 09:24:00,18.6,10.5,29.95,SSE,157,2.0,2.0,70,0.00,,---,0.00,343.00,VWS V14.00,2013-02-17 15:24:00,
2013-02-17 09:29:00,18.6,10.5,29.94,SE,127,6.0,6.0,70,0.00,,---,0.00,343.00,VWS V14.00,2013-02-17 15:29:00,
2013-02-17 09:34:00,18.6,10.5,29.94,SE,128,6.0,6.0,70,0.00,,---,0.00,343.00,VWS V14.00,2013-02-17 15:34:00,
2013-02-17 09:39:00,19.1,10.9,29.94,ESE,104,1.0,1.0,70,0.00,,---,0.00,343.00,VWS V14.00,2013-02-17 15:39:00,
2013-02-17 09:44:00,19.2,11.0,29.94,SSE,155,3.0,3.0,70,0.00,,---,0.00,343.00,VWS V14.00,2013-02-17 15:44:00,
2013-02-17 09:49:00,19.2,11.0,29.94,South,171,6.0,6.0,70,0.00,,---,0.00,343.00,VWS V14.00,2013-02-17 15:49:00,
2013-02-17 09:54:00,19.7,10.2,29.94,SSE,158,3.0,3.0,66,0.00,,---,0.00,343.00,VWS V14.00,2013-02-17 15:54:00,
2013-02-17 09:59:00,19.9,10.4,29.94,SE,137,3.0,3.0,66,0.00,,---,0.00,343.00,VWS V14.00,2013-02-17 15:59:00,
2013-02-17 10:04:00,19.9,10.1,29.94,ESE,112,3.0,3.0,65,0.00,,---,0.00,343.00,VWS V14.00,2013-02-17 16:04:00,
2013-02-17 10:09:00,20.6,10.7,29.94,SE,131,5.0,5.0,65,0.00,,---,0.00,343.00,VWS V14.00,2013-02-17 16:09:00,
2013-02-17 10:14:00,21.1,11.2,29.94,SE,127,6.0,6.0,65,0.00,,---,0.00,343.00,VWS V14.00,2013-02-17 16:14:00,
2013-02-17 10:19:00,21.4,11.5,29.94,SE,138,8.0,8.0,65,0.00,,---,0.00,343.00,VWS V14.00,2013-02-17 16:19:00,
2013-02-17 10:24:00,21.8,11.9,29.94,SE,136,3.0,3.0,65,0.00,,---,0.00,343.00,VWS V14.00,2013-02-17 16:24:00,
2013-02-17 10:29:00,22.2,11.5,29.94,ESE,113,2.0,2.0,63,0.00,,---,0.00,343.00,VWS V14.00,2013-02-17 16:29:00,
2013-02-17 10:34:00,22.2,11.5,29.93,ESE,113,6.0,6.0,63,0.00,,---,0.00,343.00,VWS V14.00,2013-02-17 16:34:00,
2013-02-17 10:39:00,22.9,12.2,29.93,SSE,157,4.0,4.0,63,0.00,,---,0.00,343.00,VWS V14.00,2013-02-17 16:39:00,
2013-02-17 10:44:00,23.3,12.6,29.93,ESE,120,6.0,7.0,63,0.00,,---,0.00,343.00,VWS V14.00,2013-02-17 16:44:00,
2013-02-17 10:49:00,23.3,12.6,29.92,ESE,110,8.0,8.0,63,0.00,,---,0.00,343.00,VWS V14.00,2013-02-17 16:49:00,
2013-02-17 10:54:00,23.3,11.9,29.92,SSE,150,6.0,6.0,61,0.00,,---,0.00,343.00,VWS V14.00,2013-02-17 16:54:00,
2013-02-17 10:59:00,23.5,12.0,29.92,ESE,114,7.0,7.0,61,0.00,,---,0.00,343.00,VWS V14.00,2013-02-17 16:59:00,
2013-02-17 11:04:00,23.9,12.4,29.92,SE,127,6.0,8.0,61,0.00,,---,0.00,343.00,VWS V14.00,2013-02-17 17:04:00,
2013-02-17 11:09:00,23.9,12.4,29.92,SE,134,10.0,10.0,61,0.00,,---,0.00,343.00,VWS V14.00,2013-02-17 17:09:00,
2013-02-17 11:14:00,25.0,13.5,29.92,SE,126,5.0,5.0,61,0.00,,---,0.00,343.00,VWS V14.00,2013-02-17 17:14:00,
2013-02-17 11:19:00,25.4,13.8,29.92,South,174,5.0,6.0,61,0.00,,---,0.00,343.00,VWS V14.00,2013-02-17 17:19:00,
2013-02-17 11:24:00,25.6,14.0,29.92,SE,137,5.0,5.0,61,0.00,,---,0.00,343.00,VWS V14.00,2013-02-17 17:24:00,
2013-02-17 11:29:00,25.7,14.1,29.92,SSE,147,3.0,3.0,61,0.00,,---,0.00,343.00,VWS V14.00,2013-02-17 17:29:00,
2013-02-17 11:34:00,25.8,14.2,29.91,SE,145,7.0,7.0,61,0.00,,---,0.00,343.00,VWS V14.00,2013-02-17 17:34:00,
2013-02-17 11:39:00,25.8,14.2,29.91,SE,133,2.0,2.0,61,0.00,,---,0.00,343.00,VWS V14.00,2013-02-17 17:39:00,
2013-02-17 11:44:00,25.8,12.7,29.91,SSE,154,10.0,10.0,57,0.00,,---,0.00,343.00,VWS V14.00,2013-02-17 17:44:00,
2013-02-17 11:49:00,25.8,12.7,29.90,SE,136,5.0,6.0,57,0.00,,---,0.00,343.00,VWS V14.00,2013-02-17 17:49:00,
2013-02-17 11:54:00,26.3,13.1,29.90,SE,140,10.0,10.0,57,0.00,,---,0.00,442.00,VWS V14.00,2013-02-17 17:54:00,
2013-02-17 11:59:00,26.3,13.6,29.90,SE,128,13.0,13.0,58,0.00,,---,0.00,442.00,VWS V14.00,2013-02-17 17:59:00,
2013-02-17 12:04:00,26.6,13.4,29.89,SE,130,6.0,8.0,57,0.00,,---,0.00,442.00,VWS V14.00,2013-02-17 18:04:00,
2013-02-17 12:09:00,26.7,13.5,29.89,ESE,107,8.0,13.0,57,0.00,,---,0.00,442.00,VWS V14.00,2013-02-17 18:09:00,
2013-02-17 12:14:00,26.9,13.7,29.89,ESE,113,5.0,5.0,57,0.00,,---,0.00,442.00,VWS V14.00,2013-02-17 18:14:00,
2013-02-17 12:19:00,27.3,14.1,29.88,SE,134,7.0,10.0,57,0.00,,---,0.00,442.00,VWS V14.00,2013-02-17 18:19:00,
2013-02-17 12:24:00,27.5,14.3,29.88,SE,140,7.0,7.0,57,0.00,,---,0.00,442.00,VWS V14.00,2013-02-17 18:24:00,
2013-02-17 12:29:00,27.8,14.6,29.88,ESE,116,5.0,5.0,57,0.00,,---,0.00,442.00,VWS V14.00,2013-02-17 18:29:00,
2013-02-17 12:34:00,28.1,14.8,29.86,SE,133,3.0,12.0,57,0.00,,---,0.00,442.00,VWS V14.00,2013-02-17 18:34:00,
2013-02-17 12:39:00,28.1,14.8,29.86,SSE,158,11.0,11.0,57,0.00,,---,0.00,442.00,VWS V14.00,2013-02-17 18:39:00,
2013-02-17 12:44:00,28.1,14.8,29.86,SE,131,6.0,10.0,57,0.00,,---,0.00,442.00,VWS V14.00,2013-02-17 18:44:00,
2013-02-17 12:49:00,28.2,14.9,29.85,ESE,121,8.0,8.0,57,0.00,,---,0.00,442.00,VWS V14.00,2013-02-17 18:49:00,
2013-02-17 12:54:00,28.2,14.9,29.85,SE,138,12.0,12.0,57,0.00,,---,0.00,442.00,VWS V14.00,2013-02-17 18:54:00,
2013-02-17 12:59:00,28.2,14.9,29.85,ESE,121,11.0,11.0,57,0.00,,---,0.00,442.00,VWS V14.00,2013-02-17 18:59:00,
2013-02-17 13:04:00,28.5,15.2,29.84,SE,133,10.0,10.0,57,0.00,,---,0.00,442.00,VWS V14.00,2013-02-17 19:04:00,
2013-02-17 13:09:00,28.5,15.2,29.84,ESE,117,7.0,7.0,57,0.00,,---,0.00,442.00,VWS V14.00,2013-02-17 19:09:00,
2013-02-17 13:14:00,28.4,15.1,29.84,East,96,9.0,10.0,57,0.00,,---,0.00,442.00,VWS V14.00,2013-02-17 19:14:00,
2013-02-17 13:19:00,28.4,15.9,29.83,ESE,114,5.0,5.0,59,0.00,,---,0.00,313.00,VWS V14.00,2013-02-17 19:19:00,
2013-02-17 13:24:00,28.7,16.2,29.83,SE,136,6.0,6.0,59,0.00,,---,0.00,313.00,VWS V14.00,2013-02-17 19:24:00,
2013-02-17 13:29:00,28.7,16.2,29.83,SSE,164,7.0,7.0,59,0.00,,---,0.00,313.00,VWS V14.00,2013-02-17 19:29:00,
2013-02-17 13:34:00,29.0,16.5,29.83,SSE,164,2.0,4.0,59,0.00,,---,0.00,296.00,VWS V14.00,2013-02-17 19:34:00,
2013-02-17 13:39:00,29.0,16.1,29.83,SE,136,10.0,10.0,58,0.00,,---,0.00,274.00,VWS V14.00,2013-02-17 19:39:00,
2013-02-17 13:44:00,29.1,16.2,29.83,SE,141,7.0,7.0,58,0.00,,---,0.00,274.00,VWS V14.00,2013-02-17 19:44:00,
2013-02-17 13:49:00,29.1,16.2,29.82,SE,144,8.0,8.0,58,0.00,,---,0.00,274.00,VWS V14.00,2013-02-17 19:49:00,
2013-02-17 13:54:00,29.4,16.5,29.82,SSE,158,6.0,11.0,58,0.00,,---,0.00,238.00,VWS V14.00,2013-02-17 19:54:00,
2013-02-17 13:59:00,29.4,16.5,29.82,ESE,112,8.0,8.0,58,0.00,,---,0.00,238.00,VWS V14.00,2013-02-17 19:59:00,
2013-02-17 14:04:00,29.5,16.6,29.81,SE,131,10.0,10.0,58,0.00,,---,0.00,238.00,VWS V14.00,2013-02-17 20:04:00,
2013-02-17 14:09:00,29.7,16.8,29.81,ESE,104,7.0,8.0,58,0.00,,---,0.00,238.00,VWS V14.00,2013-02-17 20:09:00,
2013-02-17 14:14:00,29.7,16.8,29.81,SSE,147,3.0,3.0,58,0.00,,---,0.00,238.00,VWS V14.00,2013-02-17 20:14:00,
2013-02-17 14:19:00,29.8,16.8,29.80,SSE,155,5.0,5.0,58,0.00,,---,0.00,238.00,VWS V14.00,2013-02-17 20:19:00,
2013-02-17 14:24:00,30.0,17.0,29.80,SE,128,8.0,8.0,58,0.00,,---,0.00,238.00,VWS V14.00,2013-02-17 20:24:00,
2013-02-17 14:29:00,30.3,17.3,29.80,ESE,117,8.0,8.0,58,0.00,,---,0.00,238.00,VWS V14.00,2013-02-17 20:29:00,
2013-02-17 14:34:00,30.6,17.6,29.79,ESE,120,11.0,11.0,58,0.00,,---,0.00,238.00,VWS V14.00,2013-02-17 20:34:00,
2013-02-17 14:39:00,30.7,17.7,29.79,ESE,116,7.0,7.0,58,0.00,,---,0.00,230.00,VWS V14.00,2013-02-17 20:39:00,
2013-02-17 14:44:00,30.9,17.9,29.79,SE,138,6.0,6.0,58,0.00,,---,0.00,230.00,VWS V14.00,2013-02-17 20:44:00,
2013-02-17 14:49:00,30.9,17.5,29.77,SSE,160,7.0,7.0,57,0.00,,---,0.00,230.00,VWS V14.00,2013-02-17 20:49:00,
2013-02-17 14:54:00,30.9,17.5,29.77,ESE,117,10.0,10.0,57,0.00,,---,0.00,230.00,VWS V14.00,2013-02-17 20:54:00,
2013-02-17 14:59:00,31.2,17.8,29.77,SE,130,5.0,5.0,57,0.00,,---,0.00,230.00,VWS V14.00,2013-02-17 20:59:00,
2013-02-17 15:04:00,31.2,17.8,29.77,SSE,158,6.0,6.0,57,0.00,,---,0.00,199.00,VWS V14.00,2013-02-17 21:04:00,
2013-02-17 15:09:00,31.2,18.2,29.77,ESE,120,5.0,7.0,58,0.00,,---,0.00,199.00,VWS V14.00,2013-02-17 21:09:00,
2013-02-17 15:14:00,31.2,18.2,29.77,SE,143,6.0,6.0,58,0.00,,---,0.00,187.00,VWS V14.00,2013-02-17 21:14:00,
2013-02-17 15:19:00,31.0,18.0,29.77,SSE,155,6.0,11.0,58,0.00,,---,0.00,187.00,VWS V14.00,2013-02-17 21:19:00,
2013-02-17 15:24:00,30.9,17.9,29.77,SSE,165,14.0,14.0,58,0.00,,---,0.00,187.00,VWS V14.00,2013-02-17 21:24:00,
2013-02-17 15:29:00,30.9,18.3,29.77,ESE,117,10.0,10.0,59,0.00,,---,0.00,153.00,VWS V14.00,2013-02-17 21:29:00,
2013-02-17 15:34:00,30.9,18.3,29.76,ESE,121,7.0,7.0,59,0.00,,---,0.00,155.00,VWS V14.00,2013-02-17 21:34:00,
2013-02-17 15:39:00,30.9,18.7,29.76,SE,137,9.0,9.0,60,0.00,,---,0.00,146.00,VWS V14.00,2013-02-17 21:39:00,
2013-02-17 15:44:00,31.0,18.4,29.76,ESE,123,7.0,8.0,59,0.00,,---,0.00,148.00,VWS V14.00,2013-02-17 21:44:00,
2013-02-17 15:49:00,31.0,18.4,29.75,SSE,154,11.0,11.0,59,0.00,,---,0.00,148.00,VWS V14.00,2013-02-17 21:49:00,
2013-02-17 15:54:00,31.0,18.4,29.75,ESE,123,8.0,10.0,59,0.00,,---,0.00,143.00,VWS V14.00,2013-02-17 21:54:00,
2013-02-17 15:59:00,31.0,18.4,29.75,SE,127,3.0,8.0,59,0.00,,---,0.00,135.00,VWS V14.00,2013-02-17 21:59:00,
2013-02-17 16:04:00,30.9,18.7,29.74,SSE,164,5.0,5.0,60,0.00,,---,0.00,132.00,VWS V14.00,2013-02-17 22:04:00,
2013-02-17 16:09:00,30.9,18.7,29.74,ESE,109,5.0,5.0,60,0.00,,---,0.00,132.00,VWS V14.00,2013-02-17 22:09:00,
2013-02-17 16:14:00,30.9,18.7,29.74,SE,130,5.0,5.0,60,0.00,,---,0.00,132.00,VWS V14.00,2013-02-17 22:14:00,
2013-02-17 16:19:00,30.7,18.5,29.73,East,99,7.0,7.0,60,0.00,,---,0.00,132.00,VWS V14.00,2013-02-17 22:19:00,
2013-02-17 16:24:00,30.7,18.5,29.73,South,175,12.0,16.0,60,0.00,,---,0.00,95.00,VWS V14.00,2013-02-17 22:24:00,
2013-02-17 16:29:00,30.6,18.4,29.73,SE,143,5.0,5.0,60,0.00,,---,0.00,93.00,VWS V14.00,2013-02-17 22:29:00,
2013-02-17 16:34:00,30.6,18.8,29.72,East,96,5.0,5.0,61,0.00,,---,0.00,93.00,VWS V14.00,2013-02-17 22:34:00,
2013-02-17 16:39:00,30.6,18.8,29.72,SE,130,5.0,5.0,61,0.00,,---,0.00,76.00,VWS V14.00,2013-02-17 22:39:00,
2013-02-17 16:44:00,30.4,18.6,29.72,East,97,7.0,7.0,61,0.00,,---,0.00,76.00,VWS V14.00,2013-02-17 22:44:00,
2013-02-17 16:49:00,30.4,18.6,29.73,SSE,152,2.0,2.0,61,0.00,,---,0.00,76.00,VWS V14.00,2013-02-17 22:49:00,
2013-02-17 16:54:00,30.1,18.3,29.73,SE,140,6.0,6.0,61,0.00,,---,0.00,49.00,VWS V14.00,2013-02-17 22:54:00,
2013-02-17 16:59:00,30.1,18.3,29.73,ESE,109,15.0,15.0,61,0.00,,---,0.00,49.00,VWS V14.00,2013-02-17 22:59:00,
2013-02-17 17:04:00,30.0,18.2,29.72,ESE,109,11.0,11.0,61,0.00,,---,0.00,49.00,VWS V14.00,2013-02-17 23:04:00,
2013-02-17 17:09:00,30.0,18.2,29.72,ESE,119,8.0,8.0,61,0.00,,---,0.00,42.00,VWS V14.00,2013-02-17 23:09:00,
2013-02-17 17:14:00,29.8,18.0,29.72,SSE,147,7.0,7.0,61,0.00,,---,0.00,42.00,VWS V14.00,2013-02-17 23:14:00,
2013-02-17 17:19:00,29.7,17.9,29.71,ESE,109,6.0,12.0,61,0.00,,---,0.00,42.00,VWS V14.00,2013-02-17 23:19:00,
2013-02-17 17:24:00,29.7,18.3,29.71,SE,145,3.0,3.0,62,0.00,,---,0.00,42.00,VWS V14.00,2013-02-17 23:24:00,
2013-02-17 17:29:00,29.5,18.5,29.71,ESE,123,5.0,14.0,63,0.00,,---,0.00,42.00,VWS V14.00,2013-02-17 23:29:00,
2013-02-17 17:34:00,29.4,18.4,29.70,ESE,123,10.0,10.0,63,0.00,,---,0.00,42.00,VWS V14.00,2013-02-17 23:34:00,
2013-02-17 17:39:00,29.4,18.4,29.70,SE,143,3.0,3.0,63,0.00,,---,0.00,0.00,VWS V14.00,2013-02-17 23:39:00,
2013-02-17 17:44:00,29.4,18.4,29.70,East,99,6.0,6.0,63,0.00,,---,0.00,0.00,VWS V14.00,2013-02-17 23:44:00,
2013-02-17 17:49:00,29.3,18.3,29.70,ESE,106,5.0,6.0,63,0.00,,---,0.00,0.00,VWS V14.00,2013-02-17 23:49:00,
2013-02-17 17:54:00,29.3,18.3,29.70,ESE,123,5.0,6.0,63,0.00,,---,0.00,0.00,VWS V14.00,2013-02-17 23:54:00,
2013-02-17 17:59:00,29.1,18.1,29.70,SE,127,9.0,10.0,63,0.00,,---,0.00,0.00,VWS V14.00,2013-02-17 23:59:00,
2013-02-17 18:04:00,29.1,18.1,29.70,SE,127,8.0,8.0,63,0.00,,---,0.00,0.00,VWS V14.00,2013-02-18 00:04:00,
2013-02-17 18:09:00,29.0,18.0,29.70,SE,141,7.0,7.0,63,0.00,,---,0.00,0.00,VWS V14.00,2013-02-18 00:09:00,
2013-02-17 18:14:00,29.0,18.0,29.70,SE,136,13.0,13.0,63,0.00,,---,0.00,0.00,VWS V14.00,2013-02-18 00:14:00,
2013-02-17 18:19:00,28.8,17.8,29.69,East,96,7.0,8.0,63,0.00,,---,0.00,0.00,VWS V14.00,2013-02-18 00:19:00,
2013-02-17 18:24:00,28.8,18.5,29.69,SE,127,5.0,5.0,65,0.00,,---,0.00,0.00,VWS V14.00,2013-02-18 00:24:00,
2013-02-17 18:29:00,28.7,18.4,29.69,SE,127,5.0,5.0,65,0.00,,---,0.00,0.00,VWS V14.00,2013-02-18 00:29:00,
2013-02-17 18:34:00,28.7,18.4,29.69,SE,131,5.0,11.0,65,0.00,,---,0.00,0.00,VWS V14.00,2013-02-18 00:34:00,
2013-02-17 18:39:00,28.5,18.2,29.69,ESE,120,10.0,10.0,65,0.00,,---,0.00,0.00,VWS V14.00,2013-02-18 00:39:00,
2013-02-17 18:44:00,28.5,18.2,29.69,SE,126,3.0,3.0,65,0.00,,---,0.00,0.00,VWS V14.00,2013-02-18 00:44:00,
2013-02-17 18:49:00,28.5,18.2,29.68,SE,126,7.0,7.0,65,0.00,,---,0.00,0.00,VWS V14.00,2013-02-18 00:49:00,
2013-02-17 18:54:00,28.5,18.6,29.68,SE,131,16.0,16.0,66,0.00,,---,0.00,0.00,VWS V14.00,2013-02-18 00:54:00,
2013-02-17 18:59:00,28.4,18.5,29.68,SE,141,8.0,8.0,66,0.00,,---,0.00,0.00,VWS V14.00,2013-02-18 00:59:00,
2013-02-17 19:04:00,28.4,18.5,29.69,ESE,107,3.0,7.0,66,0.00,,---,0.00,0.00,VWS V14.00,2013-02-18 01:04:00,
2013-02-17 19:09:00,28.4,18.5,29.69,SSE,151,5.0,5.0,66,0.00,,---,0.00,0.00,VWS V14.00,2013-02-18 01:09:00,
2013-02-17 19:14:00,28.2,18.3,29.69,ESE,110,3.0,7.0,66,0.00,,---,0.00,0.00,VWS V14.00,2013-02-18 01:14:00,
2013-02-17 19:19:00,28.2,18.3,29.69,SE,133,5.0,5.0,66,0.00,,---,0.00,0.00,VWS V14.00,2013-02-18 01:19:00,
2013-02-17 19:24:00,28.2,18.3,29.69,SE,130,6.0,6.0,66,0.00,,---,0.00,0.00,VWS V14.00,2013-02-18 01:24:00,
2013-02-17 19:29:00,28.2,18.3,29.69,SSE,161,2.0,4.0,66,0.00,,---,0.00,0.00,VWS V14.00,2013-02-18 01:29:00,
2013-02-17 19:34:00,28.2,18.7,29.69,SE,131,5.0,5.0,67,0.00,,---,0.00,0.00,VWS V14.00,2013-02-18 01:34:00,
2013-02-17 19:39:00,28.1,18.6,29.69,East,100,5.0,7.0,67,0.00,,---,0.00,0.00,VWS V14.00,2013-02-18 01:39:00,
2013-02-17 19:44:00,28.1,18.6,29.69,SE,137,5.0,5.0,67,0.00,,---,0.00,0.00,VWS V14.00,2013-02-18 01:44:00,
2013-02-17 19:49:00,28.1,18.6,29.69,ESE,123,5.0,8.0,67,0.00,,---,0.00,0.00,VWS V14.00,2013-02-18 01:49:00,
2013-02-17 19:54:00,28.1,18.6,29.69,SE,128,4.0,4.0,67,0.00,,---,0.00,0.00,VWS V14.00,2013-02-18 01:54:00,
2013-02-17 19:59:00,28.1,18.6,29.69,ESE,116,5.0,5.0,67,0.00,,---,0.00,0.00,VWS V14.00,2013-02-18 01:59:00,
2013-02-17 20:04:00,28.1,18.6,29.68,East,95,3.0,8.0,67,0.00,,---,0.00,0.00,VWS V14.00,2013-02-18 02:04:00,
2013-02-17 20:09:00,27.9,18.4,29.68,SE,133,5.0,5.0,67,0.00,,---,0.00,0.00,VWS V14.00,2013-02-18 02:09:00,
2013-02-17 20:14:00,27.9,18.4,29.68,SE,140,5.0,5.0,67,0.00,,---,0.00,0.00,VWS V14.00,2013-02-18 02:14:00,
2013-02-17 20:19:00,27.9,18.4,29.67,East,96,7.0,7.0,67,0.00,,---,0.00,0.00,VWS V14.00,2013-02-18 02:19:00,
2013-02-17 20:24:00,27.9,18.7,29.67,ESE,117,5.0,5.0,68,0.00,,---,0.00,0.00,VWS V14.00,2013-02-18 02:24:00,
2013-02-17 20:29:00,27.9,18.7,29.67,SE,145,11.0,11.0,68,0.00,,---,0.00,0.00,VWS V14.00,2013-02-18 02:29:00,
2013-02-17 20:34:00,27.9,18.7,29.67,SE,124,8.0,8.0,68,0.00,,---,0.00,0.00,VWS V14.00,2013-02-18 02:34:00,
2013-02-17 20:39:00,27.9,18.7,29.67,SE,134,11.0,11.0,68,0.00,,---,0.00,0.00,VWS V14.00,2013-02-18 02:39:00,
2013-02-17 20:44:00,27.9,18.7,29.67,East,97,7.0,7.0,68,0.00,,---,0.00,0.00,VWS V14.00,2013-02-18 02:44:00,
2013-02-17 20:49:00,27.9,18.7,29.66,ESE,109,11.0,11.0,68,0.00,,---,0.00,0.00,VWS V14.00,2013-02-18 02:49:00,
2013-02-17 20:54:00,27.9,18.7,29.66,SSE,155,7.0,7.0,68,0.00,,---,0.00,0.00,VWS V14.00,2013-02-18 02:54:00,
2013-02-17 20:59:00,27.9,19.1,29.66,ESE,110,7.0,7.0,69,0.00,,---,0.00,0.00,VWS V14.00,2013-02-18 02:59:00,
2013-02-17 21:04:00,27.9,19.1,29.66,SSE,151,3.0,3.0,69,0.00,,---,0.00,0.00,VWS V14.00,2013-02-18 03:04:00,
2013-02-17 21:09:00,27.9,19.1,29.66,SE,134,2.0,2.0,69,0.00,,---,0.00,0.00,VWS V14.00,2013-02-18 03:09:00,
2013-02-17 21:14:00,27.9,19.1,29.66,ESE,116,7.0,7.0,69,0.00,,---,0.00,0.00,VWS V14.00,2013-02-18 03:14:00,
2013-02-17 21:19:00,27.9,19.1,29.65,SSE,150,5.0,5.0,69,0.00,,---,0.00,0.00,VWS V14.00,2013-02-18 03:19:00,
2013-02-17 21:24:00,27.9,19.1,29.65,ESE,106,6.0,10.0,69,0.00,,---,0.00,0.00,VWS V14.00,2013-02-18 03:24:00,
2013-02-17 21:29:00,27.9,19.1,29.65,SE,130,6.0,6.0,69,0.00,,---,0.00,0.00,VWS V14.00,2013-02-18 03:29:00,
2013-02-17 21:34:00,27.9,19.1,29.65,East,95,12.0,12.0,69,0.00,,---,0.00,0.00,VWS V14.00,2013-02-18 03:34:00,
2013-02-17 21:39:00,28.1,19.3,29.65,ESE,106,8.0,8.0,69,0.00,,---,0.00,0.00,VWS V14.00,2013-02-18 03:39:00,
2013-02-17 21:44:00,27.9,19.1,29.65,ESE,114,6.0,6.0,69,0.00,,---,0.00,0.00,VWS V14.00,2013-02-18 03:44:00,
2013-02-17 21:49:00,27.9,19.1,29.64,SE,127,10.0,10.0,69,0.00,,---,0.00,0.00,VWS V14.00,2013-02-18 03:49:00,
2013-02-17 21:54:00,27.9,19.1,29.64,ESE,113,4.0,4.0,69,0.00,,---,0.00,0.00,VWS V14.00,2013-02-18 03:54:00,
2013-02-17 21:59:00,27.9,19.1,29.64,SE,133,5.0,5.0,69,0.00,,---,0.00,0.00,VWS V14.00,2013-02-18 03:59:00,
2013-02-17 22:04:00,27.9,19.1,29.64,ESE,120,7.0,7.0,69,0.00,,---,0.00,0.00,VWS V14.00,2013-02-18 04:04:00,
2013-02-17 22:09:00,28.1,19.3,29.64,SE,127,7.0,10.0,69,0.00,,---,0.00,0.00,VWS V14.00,2013-02-18 04:09:00,
2013-02-17 22:14:00,28.1,19.3,29.64,SE,126,7.0,7.0,69,0.00,,---,0.00,0.00,VWS V14.00,2013-02-18 04:14:00,
2013-02-17 22:19:00,28.1,19.3,29.62,SE,138,5.0,5.0,69,0.00,,---,0.00,0.00,VWS V14.00,2013-02-18 04:19:00,
2013-02-17 22:24:00,28.1,19.3,29.62,ESE,120,12.0,12.0,69,0.00,,---,0.00,0.00,VWS V14.00,2013-02-18 04:24:00,
2013-02-17 22:29:00,28.1,19.3,29.62,SE,143,5.0,5.0,69,0.00,,---,0.00,0.00,VWS V14.00,2013-02-18 04:29:00,
2013-02-17 22:34:00,28.1,19.3,29.61,ESE,117,7.0,7.0,69,0.00,,---,0.00,0.00,VWS V14.00,2013-02-18 04:34:00,
2013-02-17 22:39:00,28.1,19.3,29.61,SE,130,6.0,8.0,69,0.00,,---,0.00,0.00,VWS V14.00,2013-02-18 04:39:00,
2013-02-17 22:44:00,28.1,19.3,29.61,SE,124,5.0,5.0,69,0.00,,---,0.00,0.00,VWS V14.00,2013-02-18 04:44:00,
2013-02-17 22:49:00,28.1,19.3,29.61,ESE,116,8.0,8.0,69,0.00,,---,0.00,0.00,VWS V14.00,2013-02-18 04:49:00,
2013-02-17 22:54:00,28.1,19.3,29.61,ESE,117,8.0,8.0,69,0.00,,---,0.00,0.00,VWS V14.00,2013-02-18 04:54:00,
2013-02-17 22:59:00,28.1,19.3,29.61,East,99,7.0,7.0,69,0.00,,---,0.00,0.00,VWS V14.00,2013-02-18 04:59:00,
2013-02-17 23:00:00,28.1,19.3,29.61,East,99,7.0,7.0,69,0.00,,---,0.00,0.00,VWS V14.00,2013-02-18 05:00:00,
2013-02-17 23:05:00,27.9,19.1,29.61,ESE,114,11.0,11.0,69,0.00,,---,0.00,0.00,VWS V14.00,2013-02-18 05:05:00,
2013-02-17 23:10:00,27.9,19.1,29.61,SE,126,5.0,5.0,69,0.00,,---,0.00,0.00,VWS V14.00,2013-02-18 05:10:00,
2013-02-17 23:15:00,27.8,19.0,29.59,ESE,123,10.0,10.0,69,0.00,,---,0.00,0.00,VWS V14.00,2013-02-18 05:15:00,
2013-02-17 23:20:00,27.8,19.0,29.59,SE,141,5.0,6.0,69,0.00,,---,0.00,0.00,VWS V14.00,2013-02-18 05:20:00,
2013-02-17 23:25:00,27.8,19.0,29.59,ESE,106,7.0,7.0,69,0.00,,---,0.00,0.00,VWS V14.00,2013-02-18 05:25:00,
2013-02-17 23:30:00,27.8,19.0,29.58,SE,128,5.0,6.0,69,0.00,,---,0.00,0.00,VWS V14.00,2013-02-18 05:30:00,
2013-02-17 23:35:00,27.8,19.0,29.58,ESE,123,10.0,10.0,69,0.00,,---,0.00,0.00,VWS V14.00,2013-02-18 05:35:00,
2013-02-17 23:40:00,27.8,19.0,29.58,ESE,116,11.0,11.0,69,0.00,,---,0.00,0.00,VWS V14.00,2013-02-18 05:40:00,
2013-02-17 23:45:00,27.6,18.8,29.58,SE,137,7.0,7.0,69,0.00,,---,0.00,0.00,VWS V14.00,2013-02-18 05:45:00,
2013-02-17 23:50:00,27.6,18.8,29.58,ESE,107,7.0,7.0,69,0.00,,---,0.00,0.00,VWS V14.00,2013-02-18 05:50:00,
2013-02-17 23:55:00,27.6,18.8,29.58,ESE,120,11.0,11.0,69,0.00,,---,0.00,0.00,VWS V14.00,2013-02-18 05:55:00,